Change the Weather History Date:

Wednesday, July 10, 2013

  Actual Average Record
Temperature  
Mean Temperature 71 °F -  
Max Temperature 84 °F 84 °F 99 °F (1988)
Min Temperature 58 °F 59 °F 45 °F (1968)
Cooling Degree Days 6    
Growing Degree Days 21 (Base 50)    
Moisture  
Dew Point 65 °F    
Average Humidity 73    
Maximum Humidity 95    
Minimum Humidity 43    
Precipitation  
Precipitation 0.00 in - - ()
Sea Level Pressure  
Sea Level Pressure 29.85 in    
Wind  
Wind Speed 9 mph (West)    
Max Wind Speed 17 mph    
Max Gust Speed 25 mph    
Visibility 8 miles    
Events      
Averages and records for this station are not official NWS values.
T = Trace of Precipitation, MM = Missing Value Source: NWS Daily Summary

Daily Weather History Graph

Daily Weather History Graph

Search for Another Location

Airport or City:

Trip Planner

Search our weather history database for the weather conditions in past years. The results will help you decide how hot, cold, wet, or windy it might be!

Date:

Astronomy

Jul. 10, 2013 Rise Set
Actual Time 6:08 AM EDT 9:19 PM EDT
Civil Twilight 5:33 AM EDT 9:54 PM EDT
Nautical Twilight 4:48 AM EDT 10:39 PM EDT
Astronomical Twilight 3:54 AM EDT 11:33 PM EDT
Moon 8:33 AM EDT (7/10) 10:22 PM EDT (7/10)
Length of Visible Light 16h 20m
Length of Day
15h 11m
Waxing Crescent, 5% of the Moon is Illuminated
Jul 10
Waxing Crescent
Jul 15
First Quarter
Jul 22
Full
Jul 29
Last Quarter
Aug 6
New

Hourly Weather History & Observations

Time (EDT) Temp. Heat Index Dew Point Humidity Pressure Visibility Wind Dir Wind Speed Gust Speed Precip Events Conditions
12:15 AM 74.5 °F - 72.9 °F 95% 29.85 in 3.0 mi SSW 8.1 mph - N/A   Overcast
12:35 AM 74.5 °F - 72.9 °F 95% 29.85 in 3.0 mi SSW 5.8 mph - N/A   Overcast
12:54 AM 74.5 °F - 72.9 °F 95% 29.84 in 3.0 mi SSW 5.8 mph - N/A   Overcast
1:14 AM 74.3 °F - 72.7 °F 95% 29.83 in 3.0 mi SSW 6.9 mph - N/A   Overcast
1:35 AM 74.5 °F - 72.9 °F 95% 29.82 in 4.0 mi SSW 8.1 mph - N/A   Mostly Cloudy
1:54 AM 74.7 °F - 72.9 °F 94% 29.82 in 5.0 mi SW 9.2 mph - N/A   Scattered Clouds
2:15 AM 75.2 °F - 73.0 °F 93% 29.81 in 5.0 mi SW 8.1 mph - N/A   Scattered Clouds
2:34 AM 75.4 °F - 73.0 °F 92% 29.80 in 5.0 mi SW 9.2 mph - N/A   Scattered Clouds
2:55 AM 75.4 °F - 72.9 °F 92% 29.79 in 5.0 mi WSW 9.2 mph 16.1 mph N/A   Scattered Clouds
3:13 AM 75.6 °F - 73.0 °F 92% 29.79 in 5.0 mi WSW 10.4 mph 19.6 mph N/A   Scattered Clouds
3:34 AM 75.7 °F - 73.0 °F 91% 29.79 in 7.0 mi WSW 11.5 mph - N/A   Scattered Clouds
3:55 AM 75.7 °F - 72.9 °F 91% 29.79 in 7.0 mi WSW 10.4 mph 16.1 mph N/A   Mostly Cloudy
4:14 AM 75.6 °F - 72.9 °F 91% 29.80 in 7.0 mi WSW 9.2 mph - N/A   Scattered Clouds
4:35 AM 75.2 °F - 72.7 °F 92% 29.81 in 7.0 mi WSW 9.2 mph - N/A   Scattered Clouds
4:54 AM 75.2 °F - 72.5 °F 91% 29.81 in 7.0 mi WSW 6.9 mph - N/A   Clear
5:14 AM 74.7 °F - 72.1 °F 92% 29.81 in 7.0 mi WSW 9.2 mph - N/A   Clear
5:35 AM 74.5 °F - 71.8 °F 91% 29.81 in 7.0 mi WSW 8.1 mph - N/A   Clear
5:55 AM 73.9 °F - 71.6 °F 92% 29.81 in 7.0 mi WSW 8.1 mph - N/A   Clear
6:15 AM 73.6 °F - 71.4 °F 93% 29.82 in 5.0 mi WSW 6.9 mph - N/A   Clear
6:34 AM 73.8 °F - 71.6 °F 93% 29.83 in 5.0 mi SW 5.8 mph - N/A   Clear
6:55 AM 74.3 °F - 71.8 °F 92% 29.83 in 5.0 mi WSW 5.8 mph - N/A   Scattered Clouds
7:14 AM 74.5 °F - 72.0 °F 92% 29.83 in 5.0 mi WSW 4.6 mph - N/A   Scattered Clouds
7:35 AM 75.6 °F - 72.5 °F 90% 29.83 in 7.0 mi West 4.6 mph - N/A   Scattered Clouds
7:55 AM 76.6 °F - 72.5 °F 87% 29.82 in 7.0 mi WSW 6.9 mph - N/A   Clear
8:15 AM 76.5 °F - 72.5 °F 87% 29.82 in 7.0 mi West 6.9 mph - N/A   Scattered Clouds
8:35 AM 77.0 °F - 72.5 °F 86% 29.81 in 7.0 mi SW 5.8 mph - N/A   Mostly Cloudy
8:54 AM 77.9 °F - 72.3 °F 83% 29.81 in 7.0 mi WSW 6.9 mph - N/A   Mostly Cloudy
9:15 AM 77.7 °F - 71.8 °F 82% 29.81 in 10.0 mi WSW 3.5 mph - N/A   Scattered Clouds
9:34 AM 78.6 °F - 71.8 °F 79% 29.81 in 10.0 mi West 6.9 mph - N/A   Scattered Clouds
9:55 AM 79.2 °F - 71.8 °F 78% 29.82 in 10.0 mi West 9.2 mph - N/A   Mostly Cloudy
10:14 AM 80.1 °F 83.7 °F 71.6 °F 75% 29.82 in 10.0 mi West 9.2 mph - N/A   Mostly Cloudy
10:35 AM 81.3 °F 85.8 °F 72.0 °F 73% 29.82 in 10.0 mi West 11.5 mph - N/A   Overcast
10:52 AM 81.0 °F 85.1 °F 71.6 °F 73% 29.82 in 10.0 mi West 10.4 mph - N/A   Mostly Cloudy
11:14 AM 81.1 °F 85.0 °F 71.1 °F 71% 29.81 in 10.0 mi West 10.4 mph - N/A   Mostly Cloudy
11:35 AM 82.9 °F 87.5 °F 70.9 °F 67% 29.81 in 10.0 mi West 10.4 mph 16.1 mph N/A   Scattered Clouds
11:55 AM 83.1 °F 87.3 °F 70.3 °F 65% 29.81 in 10.0 mi West 11.5 mph - N/A   Mostly Cloudy
12:14 PM 82.9 °F 87.5 °F 71.1 °F 67% 29.81 in 10.0 mi West 11.5 mph 18.4 mph N/A   Mostly Cloudy
12:35 PM 84.0 °F 87.8 °F 69.4 °F 61% 29.81 in 10.0 mi West 12.7 mph 19.6 mph N/A   Scattered Clouds
12:54 PM 83.5 °F 86.7 °F 68.4 °F 60% 29.82 in 10.0 mi West 15.0 mph 23.0 mph N/A   Mostly Cloudy
1:15 PM 82.8 °F 85.8 °F 68.0 °F 61% 29.82 in 10.0 mi West 15.0 mph 25.3 mph N/A   Scattered Clouds
1:35 PM 82.8 °F 85.1 °F 66.7 °F 58% 29.83 in 10.0 mi West 15.0 mph 23.0 mph N/A   Scattered Clouds
1:54 PM 82.4 °F 84.4 °F 65.8 °F 57% 29.83 in 10.0 mi WNW 16.1 mph 21.9 mph N/A   Scattered Clouds
2:15 PM 81.0 °F 82.9 °F 65.3 °F 59% 29.83 in 10.0 mi WNW 15.0 mph 20.7 mph N/A   Scattered Clouds
2:33 PM 81.9 °F 83.4 °F 64.4 °F 55% 29.83 in 10.0 mi West 12.7 mph 24.2 mph N/A   Scattered Clouds
2:54 PM 81.3 °F 82.3 °F 61.9 °F 52% 29.83 in 10.0 mi WNW 17.3 mph 25.3 mph N/A   Scattered Clouds
3:15 PM 80.8 °F 81.5 °F 60.6 °F 50% 29.84 in 10.0 mi WNW 15.0 mph 24.2 mph N/A   Clear
3:34 PM 80.1 °F 81.0 °F 60.4 °F 51% 29.85 in 10.0 mi WNW 16.1 mph 20.7 mph N/A   Clear
3:55 PM 79.7 °F - 59.7 °F 50% 29.86 in 10.0 mi NW 13.8 mph 21.9 mph N/A   Scattered Clouds
4:14 PM 78.6 °F - 58.1 °F 49% 29.86 in 10.0 mi NNW 11.5 mph 19.6 mph N/A   Scattered Clouds
4:35 PM 78.8 °F - 57.2 °F 47% 29.86 in 10.0 mi NW 12.7 mph 19.6 mph N/A   Scattered Clouds
4:55 PM 79.0 °F - 55.9 °F 45% 29.86 in 10.0 mi WNW 13.8 mph 20.7 mph N/A   Scattered Clouds
5:15 PM 78.3 °F - 54.3 °F 43% 29.86 in 10.0 mi NW 12.7 mph 21.9 mph N/A   Scattered Clouds
5:35 PM 77.7 °F - 54.3 °F 44% 29.86 in 10.0 mi NW 15.0 mph 19.6 mph N/A   Scattered Clouds
5:54 PM 77.9 °F - 54.5 °F 44% 29.87 in 10.0 mi WNW 15.0 mph - N/A   Scattered Clouds
6:15 PM 75.9 °F - 53.6 °F 46% 29.87 in 10.0 mi NNW 11.5 mph 18.4 mph N/A   Mostly Cloudy
6:34 PM 76.5 °F - 53.6 °F 45% 29.87 in 10.0 mi NW 13.8 mph 18.4 mph N/A   Scattered Clouds
6:55 PM 75.6 °F - 53.8 °F 47% 29.88 in 10.0 mi NW 9.2 mph 19.6 mph N/A   Clear
7:15 PM 75.4 °F - 55.0 °F 49% 29.89 in 10.0 mi WNW 10.4 mph 16.1 mph N/A   Scattered Clouds
7:35 PM 74.3 °F - 54.5 °F 50% 29.89 in 10.0 mi NW 11.5 mph 17.3 mph N/A   Clear
7:55 PM 73.6 °F - 53.8 °F 50% 29.89 in 10.0 mi NNW 6.9 mph - N/A   Clear
8:15 PM 72.7 °F - 54.3 °F 52% 29.90 in 10.0 mi NW 9.2 mph - N/A   Clear
8:35 PM 72.0 °F - 53.8 °F 53% 29.91 in 10.0 mi NW 11.5 mph 16.1 mph N/A   Clear
8:55 PM 70.7 °F - 54.0 °F 55% 29.92 in 10.0 mi NW 5.8 mph - N/A   Clear
9:15 PM 68.4 °F - 55.0 °F 62% 29.93 in 10.0 mi NW 4.6 mph - N/A   Clear
9:34 PM 67.5 °F - 54.9 °F 64% 29.94 in 10.0 mi NW 3.5 mph - N/A   Clear
9:55 PM 64.8 °F - 55.8 °F 73% 29.95 in 10.0 mi Calm Calm - N/A   Clear
10:13 PM 63.5 °F - 57.4 °F 80% 29.96 in 10.0 mi Calm Calm - N/A   Clear
10:35 PM 61.9 °F - 58.3 °F 88% 29.97 in 10.0 mi Calm Calm - N/A   Clear
10:55 PM 60.6 °F - 57.9 °F 91% 29.97 in 10.0 mi Calm Calm - N/A   Clear
11:14 PM 59.2 °F - 57.0 °F 93% 29.98 in 10.0 mi Calm Calm - N/A   Clear
11:35 PM 58.5 °F - 56.5 °F 93% 29.98 in 10.0 mi Calm Calm - N/A   Clear
11:55 PM 58.6 °F - 57.0 °F 94% 29.98 in 10.0 mi Calm Calm - N/A   Clear